[[{"header":{"parameterUnit":"m.s-1","parameterCategory":1,"la1":30.2991,"la2":30.254,"lo1":-89.0895,"lo2":-89.0444,"dy":0.0017,"dx":0.0017,"nx":28,"ny":28,"refTime":"2023-10-03T21:00:00:Z","depth":0,"parameterNumber":2,"parameterNumberName":"U-component_of_WINDS"},"data":[0,0,0,0,0,0,0,0,0,0,0,0,0,0,0,0,0,0,0,0,0,0,0,0,0,0,0,0,0,0,0,0,0,0,0,0,0,0,0,0,0,0,0,0,0,0,0,0,0,0,0,0,0,0,0,0,0,0,-3.8302,-3.8302,0,-3.8378,-3.8379,-3.8379,-3.8353,-3.8351,-3.8349,-3.8348,-3.8429,-3.8433,-3.8437,0,0,0,0,0,0,0,0,0,0,0,0,0,-3.8136,-3.8139,-3.8301,-3.8302,-3.8303,-3.8378,-3.8379,-3.838,-3.8353,-3.8351,-3.8349,-3.8347,-3.8428,-3.8432,-3.8437,0,0,0,0,0,0,0,0,0,0,0,0,0,-3.821,-3.814,-3.8301,-3.8299,-3.83,-3.8377,-3.8379,-3.838,-3.8354,-3.8351,-3.8348,-3.8346,-3.8427,-3.8432,-3.8438,-3.8523,0,0,-3.8455,-3.8457,0,0,0,0,0,0,0,0,-3.8206,-3.8216,-3.8298,-3.8299,-3.83,-3.8353,-3.835,-3.8428,-3.8354,-3.8333,-3.8348,-3.8345,-3.8406,-3.8413,-3.8433,-3.8527,-3.853,-3.8455,-3.8459,-3.8461,-3.8463,0,0,0,0,0,0,0,-3.8201,-3.8212,-3.8332,-3.83,-3.8301,-3.8295,-3.8303,-3.8365,-3.8383,-3.8335,-3.8333,-3.8342,-3.8406,-3.8428,-3.8435,-3.8532,-3.8455,-3.846,-3.8463,-3.8466,-3.8699,-3.8701,0,0,0,0,0,0,-3.8195,-3.8208,-3.8329,-3.8334,-3.8245,-3.83,-3.8309,-3.8339,-3.8382,-3.8386,-3.8344,-3.8341,-3.842,-3.8428,-3.8438,-3.854,-3.8461,-3.8466,-3.8469,-3.8696,-3.8699,-3.8702,0,0,0,0,0,0,-3.8191,-3.8206,-3.8326,-3.8271,-3.8286,-3.8306,-3.834,-3.8342,-3.8363,-3.8389,-3.8393,-3.8363,-3.8418,-3.843,-3.8502,-3.8542,-3.8469,-3.8474,-3.8693,-3.8697,-3.8701,-3.8745,0,0,0,0,0,0,-3.8187,-3.8205,-3.8236,-3.8272,-3.8289,-3.8388,-3.8342,-3.8345,-3.8373,-3.8369,-3.8408,-3.8412,-3.8417,-3.8493,-3.8507,-3.8549,-3.8478,-3.8689,-3.8695,-3.87,-3.874,-3.875,-3.8759,0,0,0,0,0,-3.8181,-3.8247,-3.8238,-3.8253,-3.8329,-3.839,-3.84,-3.8403,-3.8376,-3.8408,-3.8425,-3.8411,-3.8536,-3.8501,-3.8516,-3.856,-3.8686,-3.8693,-3.8699,-3.8736,-3.8748,-3.8759,0,0,0,0,0,0,-3.8217,-3.8251,-3.8242,-3.8321,-3.8353,-3.8386,-3.8427,-3.8417,-3.8458,-3.8452,-3.8456,-3.8465,-3.8538,-3.8557,-3.8517,-3.8645,-3.8607,-3.8617,-3.863,-3.8642,-3.8651,-3.8644,-3.8483,0,0,0,0,0,-3.8234,-3.828,-3.8308,-3.8375,-3.8392,-3.8407,-3.8434,-3.8433,-3.8467,-3.848,-3.8502,-3.8536,-3.8583,-3.8614,-3.8658,-3.8743,-3.8751,-3.8781,-3.879,-3.8798,-3.8806,-3.8851,-3.8864,-3.8723,-3.8723,-3.8723,0,0,-3.827,-3.8294,-3.8323,-3.8383,-3.8408,-3.8456,-3.8418,-3.8471,-3.8507,-3.8489,-3.8557,-3.8575,-3.8613,-3.8691,-3.8727,-3.8708,-3.8847,-3.8806,-3.8812,-3.8816,-3.8859,-3.8872,-3.8884,-3.8728,-3.8727,-3.8726,0,0,-3.8359,-3.8383,-3.8441,-3.8466,-3.8503,-3.8513,-3.8527,-3.8561,-3.8572,-3.864,-3.8627,-3.8671,-3.8752,-3.8779,-3.8804,-3.8904,-3.8892,-3.8919,-3.8968,-3.9012,-3.9023,-3.9033,-3.9068,-3.908,-3.8927,-3.8927,-3.8927,0,-3.84,-3.847,-3.8472,-3.8526,-3.8552,-3.8537,-3.8596,-3.8621,-3.8671,-3.869,-3.8669,-3.877,-3.8795,-3.8879,-3.8903,-3.8924,-3.894,-3.8913,-3.9021,-3.9031,-3.904,-3.9073,-3.9087,-3.893,-3.893,-3.8929,-3.8929,0,-3.8517,-3.8567,-3.8609,-3.8657,-3.8688,-3.8745,-3.8756,-3.8788,-3.8785,-3.8797,-3.8868,-3.8897,-3.8947,-3.8967,-3.8966,-3.9051,-3.9039,-3.902,-3.8981,-3.9057,-3.9088,-3.91,-3.8934,-3.8933,-3.8932,-3.8932,0,0,-3.863,-3.8678,-3.8693,-3.8714,-3.8754,-3.8793,-3.8849,-3.8897,-3.8924,-3.896,-3.9006,-3.9075,-3.9058,-3.9086,-3.9087,-3.9127,-3.9203,-3.9103,-3.9104,-3.9119,-3.9298,-3.931,-3.9325,-3.9196,-3.9198,-3.92,-3.9294,0,-3.8722,-3.8818,-3.8821,-3.8909,-3.8955,-3.8942,-3.899,-3.9021,-3.9034,-3.9076,-3.9091,-3.9139,-3.9113,-3.9129,-3.9168,-3.9185,-3.9238,-3.9179,-3.9239,-3.9241,-3.9228,-3.9341,-3.9355,-3.9442,-3.9306,-3.9308,-3.931,0,-3.8841,-3.8878,-3.897,-3.9003,-3.9023,-3.9066,-3.911,-3.915,-3.9184,-3.9191,-3.9222,-3.9219,-3.9276,-3.9238,-3.9318,-3.9277,-3.9302,-3.9315,-3.9319,-3.9323,-3.9278,-3.9347,-3.947,-3.9482,-3.9329,-3.9328,-3.9326,0,-3.8912,-3.8986,-3.905,-3.9069,-3.911,-3.914,-3.9159,-3.9191,-3.9219,-3.9258,-3.9276,-3.9323,-3.9347,-3.9384,-3.9393,-3.9364,-3.9472,-3.9434,-3.9479,-3.9479,-3.9501,-3.9499,-3.9628,-3.9521,-3.952,-3.952,-3.952,0,-3.9012,-3.9069,-3.9082,-3.9122,-3.9185,-3.919,-3.9252,-3.9269,-3.9298,-3.9341,-3.9334,-3.9375,-3.9385,-3.9428,-3.9436,-3.95,-3.9512,-3.952,-3.9521,-3.9519,-3.9518,-3.9534,-3.9528,-3.9524,-3.9523,-3.9522,-3.9522,0,-3.9101,-3.9113,-3.9182,-3.9214,-3.9224,-3.9269,-3.9297,-3.9336,-3.9348,-3.9403,-3.9416,-3.9436,-3.9487,-3.95,-3.9561,-3.9566,-3.9642,-3.9638,-3.9629,-3.9628,-3.9672,-3.9667,-3.9814,-3.9833,-3.9715,-3.9716,-3.9717,0,-3.9164,-3.9206,-3.9243,-3.9271,-3.929,-3.9335,-3.9364,-3.937,-3.9401,-3.9443,-3.9477,-3.9526,-3.9565,-3.9647,-3.9668,-3.9714,-3.9711,-3.9759,-3.9718,-3.9714,-3.971,-3.9706,-3.971,-3.9766,-3.9768,-3.9769,-3.9769,0,-3.9272,-3.9276,-3.9316,-3.9359,-3.9393,-3.9427,-3.946,-3.9484,-3.9495,-3.953,-3.958,-3.9611,-3.9673,-3.9722,-3.9769,-3.9789,-3.9781,-3.9783,-3.9795,-3.9793,-3.9785,-3.9788,-3.9649,-3.9779,-3.9778,-3.9777,-3.9777,-3.9776,-3.9349,-3.9386,-3.9417,-3.9463,-3.9488,-3.9519,-3.9556,-3.9573,-3.9615,-3.9664,-3.9666,-3.9721,-3.9756,-3.9817,-3.9841,-3.9885,-3.987,-3.9889,-3.9893,-3.9897,-3.99,-3.978,-3.9894,-3.9893,-3.9893,-3.9893,-3.9893,0,-3.9456,-3.9475,-3.9517,-3.9562,-3.9598,-3.9587,-3.9623,-3.9654,-3.9702,-3.9734,-3.9773,-3.9831,-3.9879,-3.9904,-3.9951,-3.9982,-3.9979,-3.9994,-3.9991,-3.9995,-3.9911,-3.9894,-3.9995,-3.9995,-3.9995,-3.9995,-3.9995,-3.9995,-3.9515,-3.9577,-3.9584,-3.9659,-3.9678,-3.9731,-3.9752,-3.9781,-3.9806,-3.9871,-3.991,-3.9925,-3.9955,-4.0005,-4.0048,-4.0054,-4.0072,-4.0088,-4.0092,-4.0012,-4.0001,-3.9991,-3.9976,-4.0092,-4.0092,-4.0172,-4.0173,-4.0174]},{"header":{"parameterUnit":"m.s-1","parameterCategory":1,"la1":30.2991,"la2":30.254,"lo1":-89.0895,"lo2":-89.0444,"dy":0.0017,"dx":0.0017,"nx":28,"ny":28,"refTime":"2023-10-03T21:00:00:Z","depth":0,"parameterNumber":3,"parameterNumberName":"V-component_of_WINDS"},"data":[0,0,0,0,0,0,0,0,0,0,0,0,0,0,0,0,0,0,0,0,0,0,0,0,0,0,0,0,0,0,0,0,0,0,0,0,0,0,0,0,0,0,0,0,0,0,0,0,0,0,0,0,0,0,0,0,0,0,2.3622,2.3624,0,2.3729,2.3731,2.3732,2.3732,2.3731,2.3729,2.3728,2.3837,2.3841,2.3845,0,0,0,0,0,0,0,0,0,0,0,0,0,2.3419,2.3423,2.3622,2.3624,2.3625,2.3729,2.3731,2.3732,2.3732,2.3731,2.3729,2.3728,2.3835,2.384,2.3845,0,0,0,0,0,0,0,0,0,0,0,0,0,2.3515,2.3424,2.3622,2.3638,2.364,2.3729,2.3731,2.3732,2.3733,2.3731,2.3729,2.3727,2.3834,2.384,2.3846,2.3926,0,0,2.3865,2.3868,0,0,0,0,0,0,0,0,2.3509,2.3522,2.3634,2.3637,2.364,2.3715,2.3699,2.3797,2.3733,2.3698,2.3728,2.3726,2.3798,2.3807,2.3832,2.3931,2.3935,2.3866,2.3869,2.3872,2.3874,0,0,0,0,0,0,0,2.3503,2.3517,2.3665,2.3636,2.3639,2.364,2.3651,2.3717,2.3758,2.3701,2.3701,2.3714,2.3799,2.3825,2.3834,2.3937,2.3865,2.3871,2.3875,2.3877,2.4109,2.4111,0,0,0,0,0,0,2.3493,2.3512,2.3661,2.3668,2.3568,2.3645,2.3658,2.3693,2.3757,2.3765,2.3715,2.3713,2.3816,2.3827,2.3838,2.3937,2.3872,2.3878,2.3881,2.4107,2.4109,2.4112,0,0,0,0,0,0,2.3488,2.3506,2.3657,2.359,2.3609,2.3651,2.3691,2.3696,2.3723,2.3768,2.3776,2.3735,2.3815,2.3829,2.3904,2.394,2.3881,2.3886,2.4104,2.4107,2.4111,2.4134,0,0,0,0,0,0,2.3483,2.3504,2.3535,2.3591,2.3613,2.3722,2.3693,2.37,2.3734,2.3732,2.3789,2.3796,2.3814,2.3895,2.3911,2.3948,2.3891,2.4101,2.4105,2.411,2.413,2.4138,2.4145,0,0,0,0,0,2.3475,2.3537,2.3537,2.3555,2.3652,2.3724,2.3736,2.3756,2.3737,2.3768,2.3797,2.3794,2.3934,2.3903,2.392,2.396,2.4098,2.4104,2.4109,2.4127,2.4136,2.4144,0,0,0,0,0,0,2.3483,2.3544,2.3545,2.3626,2.367,2.3724,2.3763,2.3765,2.3815,2.3811,2.3834,2.3847,2.3922,2.3948,2.3913,2.4041,2.4014,2.4023,2.4021,2.4031,2.4038,2.403,2.3896,0,0,0,0,0,2.3495,2.3548,2.3598,2.3665,2.3687,2.3722,2.3754,2.3765,2.3811,2.383,2.3865,2.3909,2.3963,2.3998,2.4051,2.4134,2.4147,2.417,2.4177,2.4183,2.4191,2.4238,2.4249,2.413,2.413,2.413,0,0,2.3519,2.3559,2.3591,2.3668,2.3703,2.3758,2.3737,2.3796,2.3837,2.3838,2.3912,2.3939,2.3991,2.4071,2.4108,2.4095,2.4227,2.419,2.4194,2.4199,2.4245,2.4256,2.4266,2.4133,2.4133,2.4132,0,0,2.359,2.3625,2.3686,2.3722,2.3776,2.3799,2.3813,2.3867,2.3886,2.396,2.3963,2.4012,2.4104,2.4141,2.4172,2.426,2.4259,2.4276,2.4314,2.436,2.4369,2.4378,2.441,2.4421,2.4284,2.4284,2.4284,0,2.3613,2.3696,2.3716,2.3776,2.381,2.3815,2.3877,2.3911,2.3979,2.4003,2.3988,2.4105,2.414,2.4229,2.4251,2.4275,2.4293,2.427,2.4366,2.4375,2.4383,2.4414,2.4426,2.4285,2.4285,2.4285,2.4285,0,2.3722,2.3779,2.3821,2.3888,2.3927,2.3987,2.4017,2.4055,2.4063,2.4088,2.4164,2.4206,2.4268,2.429,2.4298,2.4381,2.4372,2.4361,2.4334,2.4396,2.4425,2.4437,2.4288,2.4287,2.4287,2.4286,0,0,2.38,2.3879,2.3894,2.3925,2.3986,2.4031,2.4091,2.4152,2.4184,2.4231,2.4283,2.4362,2.4353,2.4388,2.4401,2.4442,2.451,2.4427,2.4428,2.4441,2.4605,2.4612,2.4626,2.451,2.4512,2.4514,2.46,0,2.3879,2.3987,2.4008,2.4103,2.4157,2.4163,2.4216,2.4259,2.4284,2.4334,2.4361,2.4417,2.4401,2.4422,2.4462,2.4493,2.4543,2.4487,2.4559,2.4561,2.4546,2.4641,2.4649,2.4729,2.4612,2.4614,2.4615,0,2.3985,2.4036,2.4135,2.419,2.4214,2.4261,2.4319,2.4367,2.4416,2.4431,2.4472,2.4481,2.4545,2.4515,2.4603,2.4565,2.4596,2.4615,2.4619,2.4626,2.4592,2.4651,2.4754,2.4766,2.4633,2.4632,2.4631,0,2.4033,2.4126,2.4199,2.4225,2.429,2.4324,2.4353,2.44,2.4436,2.4487,2.451,2.4568,2.4599,2.4644,2.4668,2.4644,2.4756,2.4728,2.4771,2.477,2.4794,2.4792,2.4904,2.4813,2.4813,2.4813,2.4812,0,2.4119,2.418,2.4222,2.4266,2.4335,2.4359,2.4426,2.4455,2.4498,2.4548,2.4557,2.4604,2.4633,2.4685,2.4704,2.4775,2.4789,2.4804,2.4808,2.4803,2.4802,2.4824,2.4819,2.4816,2.4815,2.4815,2.4814,0,2.4184,2.4215,2.4294,2.435,2.4366,2.4414,2.4462,2.4506,2.4531,2.4595,2.4612,2.4651,2.4713,2.4742,2.4817,2.483,2.4912,2.4912,2.4895,2.4897,2.4939,2.4935,2.5069,2.5088,2.4984,2.4985,2.4986,0,2.4237,2.4284,2.4346,2.4381,2.4411,2.4466,2.4503,2.4529,2.4567,2.4628,2.4665,2.4726,2.4777,2.4875,2.4911,2.4969,2.4971,2.5014,2.498,2.4974,2.4973,2.497,2.4975,2.502,2.5021,2.5022,2.5023,0,2.4328,2.4341,2.4394,2.4453,2.4497,2.4544,2.4591,2.4619,2.4652,2.4694,2.4758,2.4797,2.4875,2.4937,2.4998,2.5027,2.5031,2.5033,2.5047,2.5042,2.5031,2.5038,2.4912,2.503,2.5029,2.5029,2.5028,2.5028,2.4389,2.4432,2.4483,2.4542,2.458,2.4623,2.4668,2.4699,2.4752,2.4818,2.483,2.4898,2.4947,2.503,2.5062,2.5115,2.5105,2.5124,2.5129,2.5134,2.5136,2.5022,2.5126,2.5126,2.5126,2.5126,2.5126,0,2.4481,2.4514,2.4568,2.4634,2.4681,2.4681,2.4733,2.4772,2.4831,2.4877,2.4928,2.5001,2.5061,2.5102,2.5163,2.5198,2.5201,2.5213,2.5211,2.5218,2.5141,2.5124,2.521,2.521,2.521,2.521,2.521,2.521,2.4534,2.4607,2.4626,2.4719,2.4752,2.4818,2.4848,2.4889,2.4926,2.5007,2.5058,2.5084,2.5129,2.5194,2.5249,2.526,2.5282,2.5294,2.5305,2.5232,2.5223,2.5215,2.5199,2.5299,2.5299,2.5377,2.5378,2.5379]}]]